Temperature
12 12 12 12 12 12 12 12 12 12 12 12 12 12 12 12 12 12 12 12 12 12 12 12 12 12 12 12 12 12 12 12 12 12 11 11 11 11 11 11 11 11 11
12 12 12 12 12 12 12 12 12 12 12 12 12 12 12 12 12 12 12 12 12 12 12 12 12 12 12 12 12 12 12 11 11 11 11 11 11 11 11 11 11 11 11
12 11 11 11 11 11 11 11 11 11 12 12 12 12 11 11 11 11 11 11 11 11 12 12 11 11 11 11 11 11 11 11 11 11 11 11 11 11 11 11 11 11 11
11 11 11 11 11 11 11 11 11 11 11 11 11 11 11 11 11 11 11 11 11 11 11 11 11 11 11 11 11 11 11 11 10 11 11 10 11 10 10 10 10 10 11
11 11 11 11 11 11 11 11 11 11 11 11 11 10 11 11 10 10 10 10 10 10 11 11 10 10 10 10 10 10 10 10 10 10 10 10 10 10 10 10 10 10 10
11 11 10 10 10 10 10 10 10 10 10 10 10 10 10 10 10 10 10 10 10 10 10 10 10 10 10 10 10 10 10 10 10 10 10 10 10 10 10 10 10 10 10
10 10 10 10 10 10 10 10 10 10 10 10 10 10 9 9 9 9 9 9 9 9 9 9 9 10 10 10 10 9 9 9 9 9 9 9 9 9 9 9 9 9 9
10 10 10 10 10 10 9 9 9 9 9 9 9 9 8 9 9 9 9 9 9 9 9 9 9 9 9 9 9 9 9 9 9 9 9 9 8 9 9 9 9 9 9
10 10 10 10 9 9 9 9 9 9 9 9 9 9 8 8 8 8 8 8 8 8 8 9 9 9 9 9 9 9 8 8 8 8 8 8 8 8 8 8 8 8 8
9 9 9 9 9 9 9 9 9 9 9 9 8 8 8 8 8 7 8 8 8 8 8 8 8 8 8 8 8 8 8 8 8 8 8 8 8 7 7 7 8 8 8
9 9 9 9 9 9 9 8 8 8 8 8 8 8 8 8 8 8 7 7 7 7 7 8 8 8 8 8 8 8 8 8 7 7 7 7 7 7 7 7 7 7 7
9 9 9 9 8 8 8 8 8 8 8 8 8 8 8 7 7 7 7 7 7 7 7 7 7 7 7 8 8 7 7 7 7 7 7 7 7 7 7 7 7 7 7
9 9 8 8 8 8 8 8 8 8 8 7 7 7 7 7 7 7 7 7 6 6 6 7 7 7 7 7 7 7 7 7 7 7 7 6 6 6 6 6 6 6 6
9 8 8 8 8 8 8 7 7 7 7 7 7 7 7 7 7 7 7 7 6 6 6 6 6 6 6 7 7 6 6 6 6 6 6 6 6 6 6 6 6 6 6
8 8 8 8 8 8 7 7 7 7 7 7 7 6 6 6 6 6 6 6 6 6 5 6 6 6 6 6 6 6 6 6 6 6 6 6 6 6 6 6 6 6 6
8 8 8 8 7 7 7 7 7 7 7 6 6 6 6 6 6 6 6 6 6 6 5 6 6 6 5 5 5 6 6 6 5 5 5 5 5 5 5 5 5 5 5
8 8 7 7 7 7 7 7 7 6 6 6 6 6 6 6 6 6 6 6 5 5 5 5 5 5 5 5 5 5 5 5 5 5 5 5 5 5 5 5 5 5 5
7 7 7 7 7 7 7 6 6 6 6 6 6 6 6 5 5 5 5 5 5 5 5 5 5 5 5 5 5 5 5 5 5 5 5 5 5 4 4 4 4 4 4
6 6 6 6 6 6 6 6 6 6 6 6 6 5 5 5 5 5 5 5 5 5 5 4 4 4 4 4 4 4 4 4 4 4 4 4 4 4 4 4 4 4 4
6 6 6 6 6 6 6 6 6 5 5 5 5 5 5 5 5 5 5 5 4 4 4 4 4 4 4 4 4 4 4 4 4 4 4 4 4 3 3 3 3 3 3
5 5 5 5 5 5 5 5 5 5 5 5 5 5 5 5 4 4 4 4 4 4 4 4 3 3 3 3 3 3 3 3 3 3 3 3 3 3 3 3 3 2 2
4 4 5 5 5 5 5 5 4 4 4 4 4 4 4 4 4 4 4 4 4 3 3 3 3 3 3 3 3 3 2 2 2 2 2 2 2 2 2 2 2 2 2
4 4 4 4 4 4 4 4 4 4 4 4 4 4 4 4 3 3 3 3 3 3 3 3 3 3 3 3 2 2 2 2 2 2 2 2 2 2 2 1 1 1 1
4 4 4 4 4 4 4 4 3 3 3 3 3 3 3 3 3 3 3 3 2 2 2 2 2 2 2 2 2 2 1 1 1 1 1 1 1 1 1 1 1 1 1
3 3 3 3 3 3 3 3 3 3 3 3 3 3 2 2 2 2 2 2 2 2 2 2 2 2 2 2 1 1 1 1 0 1 0 -0 0 0 0 0 0 0 -0
2 2 2 2 2 2 2 2 2 2 2 2 2 2 2 2 2 2 2 2 2 2 2 1 1 1 1 1 1 1 0 0 -0 -0 -0 -1 -1 -1 -1 -0 -0 -0 -1
Wind_Speed
3 4 5 5 5 5 5 5 4 4 3 4 3 4 4 4 5 7 9 10 9 8 7 7 7 7 7 7 7 7 7 7 7 7 8 7 8 8 7 7 7 8 8
4 4 4 4 4 5 5 5 4 4 3 4 3 4 4 4 5 7 9 9 8 8 7 6 6 6 6 7 6 6 6 6 6 7 7 7 7 7 7 7 7 7 7
4 4 3 3 4 6 6 5 4 4 3 3 3 3 4 5 5 7 8 8 7 6 6 5 5 5 5 6 6 6 6 6 6 6 6 6 6 6 6 7 7 7 6
4 4 3 3 5 6 5 3 3 3 3 3 2 2 3 4 5 7 8 8 7 6 5 5 5 5 5 6 6 6 7 7 6 6 5 5 5 5 5 5 5 6 6
5 5 4 4 6 5 3 3 3 3 3 3 2 2 3 3 3 6 6 6 6 5 5 5 5 5 5 5 5 6 6 6 5 5 4 4 4 4 4 4 4 4 5
5 5 4 5 5 3 3 3 3 3 3 3 3 3 2 2 4 4 4 5 5 5 5 5 5 4 4 4 4 4 4 4 4 4 4 3 3 2 2 3 3 4 4
6 5 4 4 4 3 3 4 3 4 3 3 3 2 3 2 2 2 3 4 4 4 5 5 5 4 3 3 3 3 3 3 4 3 2 2 1 1 1 1 2 2 3
6 5 5 4 4 3 4 4 3 2 2 3 3 3 1 1 2 1 1 2 3 4 4 3 4 4 4 4 3 3 2 3 3 2 2 1 1 0 0 1 1 1 2
7 6 5 5 4 4 4 4 4 4 3 2 2 2 3 2 1 1 0 1 1 2 2 3 3 3 3 3 3 2 2 2 2 3 2 2 2 2 2 2 2 2 2
6 6 6 5 5 4 4 4 3 3 4 4 1 0 1 3 2 1 1 0 1 1 1 2 2 2 3 3 2 2 2 2 2 3 3 3 3 3 3 3 3 4 4
5 6 6 6 5 4 4 4 3 3 3 3 3 1 0 1 2 2 2 1 0 0 0 1 1 2 2 2 2 2 2 2 2 3 3 4 4 5 5 4 5 5 5
4 5 6 6 6 5 4 4 4 4 3 3 3 2 2 2 2 2 2 2 1 1 1 1 1 2 2 3 2 1 2 2 3 4 4 4 3 4 5 5 5 5 6
3 5 4 5 5 5 5 5 4 4 4 3 4 3 2 1 1 1 2 1 1 1 1 1 1 2 3 3 3 3 2 3 4 5 5 5 4 4 5 4 5 5 6
4 5 5 5 5 6 6 6 4 4 4 4 4 4 2 2 2 2 2 2 1 1 1 2 1 3 3 4 4 4 4 4 5 5 6 6 5 5 5 6 6 6 6
4 5 5 5 5 6 6 5 4 4 4 4 4 4 3 3 2 2 2 3 3 2 3 3 2 2 3 3 5 5 5 6 7 7 7 7 7 6 6 6 7 7 7
5 5 6 6 5 5 5 5 4 4 5 4 3 4 4 3 2 2 2 2 2 3 3 2 2 2 3 4 5 5 6 7 8 8 7 7 7 7 7 7 7 8 8
5 6 6 6 6 6 6 5 5 6 6 5 4 5 5 4 3 3 3 3 2 2 3 2 1 2 3 3 4 5 6 6 8 9 9 9 9 10 9 9 9 9 8
5 5 5 5 5 5 6 6 6 6 6 6 6 5 5 4 5 4 4 4 3 3 3 3 2 1 3 3 3 3 4 6 7 9 10 11 11 11 10 10 10 9 9
5 4 5 5 6 6 6 6 6 6 6 6 6 6 5 5 5 4 4 4 4 3 2 3 3 2 2 2 2 3 3 4 6 8 9 10 10 10 10 10 10 10 10
5 5 5 6 6 6 6 6 6 6 5 5 5 6 6 6 7 6 5 5 4 3 3 3 2 2 2 2 2 3 3 3 3 5 7 9 10 11 11 11 11 11 11
5 5 5 5 5 5 5 6 6 6 6 5 5 6 6 7 8 7 5 5 5 4 3 3 3 2 2 2 3 3 3 3 3 3 3 5 5 6 8 10 11 11 11
4 4 5 5 5 5 6 7 6 5 5 6 6 5 5 6 7 8 8 8 7 6 5 4 4 5 5 4 3 3 3 2 4 3 2 4 4 4 6 9 11 12 12
4 4 5 5 5 6 7 7 7 5 5 5 5 5 4 4 5 5 6 6 6 8 8 7 6 7 6 6 5 4 4 4 5 3 2 4 3 4 6 9 12 12 12
3 4 4 5 5 5 6 7 7 5 4 5 5 5 5 5 5 5 5 5 5 5 6 5 6 6 6 5 6 6 5 3 3 2 2 4 3 4 5 7 11 12 12
2 3 3 4 4 4 6 6 6 4 4 5 5 5 5 5 7 7 5 5 5 4 5 6 6 6 6 7 6 3 3 3 4 3 2 3 3 3 4 5 9 11 11
2 3 3 3 4 4 5 6 6 4 4 4 4 4 6 6 7 7 6 6 6 5 3 3 3 4 3 4 6 5 5 4 3 3 3 2 2 2 4 3 4 6 8
Wind_Direction
120 117 121 124 123 126 124 125 123 124 114 112 115 108 98 90 92 100 109 110 107 110 113 112 109 113 116 111 105 105 106 100 96 97 92 86 81 76 72 73 72 67 62
114 122 117 117 116 116 120 121 118 116 105 96 87 80 80 85 96 99 109 113 110 107 110 111 108 106 114 117 114 108 106 102 100 100 95 89 85 81 73 69 69 67 61
125 119 119 118 114 119 116 113 111 104 102 95 91 77 71 65 75 89 100 109 114 109 104 109 108 102 108 118 118 114 109 102 99 99 94 92 86 80 73 68 60 58 58
131 117 118 126 122 117 110 107 112 103 101 96 90 92 79 70 71 83 87 94 103 107 110 106 101 98 107 109 112 112 110 107 99 96 94 91 90 83 74 67 61 56 52
136 120 115 118 121 114 109 124 114 115 113 102 89 76 73 74 69 75 79 84 89 98 108 111 105 99 107 111 113 115 117 116 111 104 95 91 91 83 73 66 56 50 45
138 125 119 119 120 118 117 120 117 110 116 113 94 70 56 68 69 71 76 78 78 81 94 104 108 105 110 115 116 123 125 127 128 116 107 97 83 82 75 69 61 50 42
144 132 127 130 125 133 136 134 123 119 117 114 95 71 33 49 68 65 72 79 73 75 82 90 99 110 119 125 125 128 138 146 144 133 129 118 100 69 64 72 61 45 33
152 149 139 146 142 142 138 137 130 130 143 130 127 128 109 8 5 3 84 93 81 76 73 81 92 96 99 109 117 129 148 163 171 166 162 168 177 214 333 347 322 343 3
155 147 145 145 154 156 156 156 156 149 159 152 123 136 146 185 163 334 69 98 101 91 78 80 79 94 108 101 107 117 148 180 208 212 216 227 239 244 269 287 319 319 310
156 156 155 152 158 159 163 171 166 157 157 169 178 110 139 142 146 146 327 22 97 113 108 79 78 101 125 127 131 148 158 189 223 237 240 243 248 254 259 271 287 295 308
162 162 162 160 167 167 170 173 168 168 169 173 171 164 110 77 129 150 193 230 304 274 137 113 124 132 146 149 154 160 177 208 236 253 262 262 259 259 261 267 277 292 297
172 170 168 166 169 171 173 173 172 176 181 179 169 157 153 158 188 165 179 202 218 250 246 125 149 168 180 170 175 187 196 225 248 261 264 267 274 278 277 276 283 293 299
174 180 174 173 171 171 172 170 169 180 184 180 177 177 172 176 174 171 157 185 210 246 221 242 209 192 196 182 193 214 218 235 251 264 266 266 272 278 283 288 294 296 300
178 176 176 179 177 175 176 175 175 181 183 185 189 178 175 183 171 173 173 165 202 251 224 237 236 206 202 198 211 220 226 238 244 260 267 268 273 278 282 284 287 290 296
175 175 178 182 184 181 176 171 177 184 183 189 192 186 185 188 181 176 167 167 174 214 236 228 222 221 214 213 219 216 224 239 244 253 259 261 263 272 279 280 281 284 288
172 176 182 185 183 180 176 175 178 181 181 193 192 191 190 186 181 178 186 197 190 193 228 220 224 226 214 224 224 219 229 236 242 247 252 255 259 265 268 268 273 278 282
172 178 182 183 182 182 181 179 186 183 186 194 195 194 197 189 186 194 192 198 206 190 225 255 247 223 203 215 218 223 229 231 240 246 250 252 255 259 261 262 266 272 277
176 180 180 183 187 187 182 184 191 190 191 197 201 199 202 196 192 197 194 201 206 205 207 244 261 242 230 214 209 220 230 236 240 249 253 256 255 256 259 262 263 265 271
177 179 177 184 189 189 189 192 191 193 197 200 202 204 206 197 202 202 200 205 207 210 197 212 240 243 249 229 230 246 238 233 245 249 256 258 256 258 261 263 264 266 269
180 183 188 192 191 190 193 193 191 194 199 202 201 205 206 205 210 205 208 207 202 200 194 198 220 232 240 236 219 240 259 247 248 250 257 257 259 261 261 261 263 266 269
185 188 188 192 192 195 197 193 192 196 199 201 202 206 207 208 210 212 216 207 197 200 201 210 223 231 233 223 230 229 249 263 261 246 251 252 250 250 254 259 262 265 265
183 184 190 193 198 208 205 199 196 197 200 201 206 211 210 210 211 214 221 216 206 203 205 212 229 226 231 230 227 234 234 247 265 244 227 262 238 247 248 249 259 265 265
183 190 198 197 204 210 206 203 201 201 203 205 206 209 221 221 211 211 220 219 222 220 217 215 223 228 226 221 217 230 230 236 249 238 232 267 253 254 254 257 260 263 264
194 202 203 202 205 215 212 211 207 200 199 207 211 210 211 211 213 207 206 214 223 229 228 226 225 231 232 216 212 221 228 244 269 251 207 255 263 260 267 259 261 263 266
198 204 203 202 205 213 211 214 209 200 203 210 217 216 214 212 218 213 210 215 228 242 242 236 237 239 236 230 214 205 209 229 265 260 223 231 266 280 277 266 262 263 265
206 205 209 206 207 210 213 211 209 204 209 215 219 220 220 222 221 215 214 214 226 236 229 238 242 253 240 232 228 213 208 225 251 257 224 219 266 292 287 272 255 262 268
Height
1529 1530 1532 1534 1536 1537 1539 1541 1542 1545 1547 1548 1550 1552 1553 1555 1556 1557 1558 1559 1560 1560 1561 1562 1562 1563 1563 1564 1564 1564 1565 1565 1565 1566 1566 1566 1566 1566 1566 1565 1565 1565 1564
1527 1529 1531 1532 1534 1536 1538 1540 1541 1543 1545 1547 1549 1551 1552 1554 1555 1556 1557 1558 1559 1559 1560 1561 1561 1562 1563 1563 1564 1564 1564 1564 1565 1565 1565 1565 1566 1565 1565 1565 1565 1564 1564
1525 1527 1529 1531 1533 1535 1537 1539 1540 1542 1544 1546 1548 1549 1551 1552 1554 1554 1555 1556 1557 1558 1559 1560 1560 1561 1562 1563 1563 1563 1563 1564 1564 1564 1564 1565 1565 1565 1565 1565 1564 1564 1564
1524 1526 1527 1529 1531 1533 1535 1537 1539 1541 1542 1544 1546 1547 1549 1551 1552 1553 1554 1555 1556 1557 1558 1558 1559 1560 1561 1561 1562 1562 1562 1563 1563 1563 1563 1564 1564 1564 1564 1564 1564 1563 1563
1522 1523 1525 1527 1529 1531 1533 1535 1537 1539 1541 1542 1544 1546 1547 1549 1550 1552 1553 1554 1555 1555 1556 1557 1558 1559 1559 1560 1561 1561 1561 1561 1562 1562 1562 1562 1563 1563 1563 1563 1563 1562 1562
1520 1521 1524 1526 1527 1529 1531 1533 1535 1537 1539 1541 1543 1544 1546 1547 1549 1550 1551 1552 1553 1554 1554 1555 1556 1557 1558 1558 1559 1560 1560 1560 1561 1561 1561 1561 1561 1561 1561 1561 1561 1561 1560
1518 1519 1521 1523 1525 1527 1529 1531 1533 1535 1537 1539 1541 1542 1544 1546 1547 1548 1549 1550 1551 1552 1553 1553 1554 1555 1556 1557 1557 1558 1558 1559 1559 1559 1559 1559 1559 1559 1559 1559 1559 1559 1558
1516 1517 1519 1521 1523 1525 1527 1529 1531 1533 1534 1536 1538 1540 1542 1545 1545 1546 1547 1548 1549 1550 1550 1551 1552 1553 1553 1554 1555 1556 1556 1557 1557 1557 1557 1557 1557 1557 1557 1557 1557 1556 1556
1513 1515 1517 1519 1520 1522 1524 1526 1528 1530 1532 1534 1536 1538 1539 1540 1542 1544 1544 1545 1546 1547 1548 1549 1550 1550 1551 1552 1553 1553 1554 1554 1555 1555 1555 1555 1555 1555 1555 1555 1554 1554 1554
1510 1512 1514 1516 1518 1520 1521 1524 1526 1528 1529 1531 1533 1535 1537 1537 1539 1540 1542 1543 1544 1545 1545 1546 1547 1548 1548 1549 1550 1550 1551 1552 1552 1552 1552 1552 1552 1552 1552 1552 1552 1551 1551
1508 1509 1511 1513 1515 1517 1519 1521 1523 1525 1526 1528 1530 1531 1533 1535 1536 1537 1538 1540 1541 1542 1542 1543 1544 1545 1545 1546 1547 1547 1548 1549 1549 1549 1549 1549 1549 1549 1549 1549 1549 1548 1548
1504 1506 1508 1510 1512 1514 1516 1518 1520 1522 1524 1525 1527 1529 1530 1531 1533 1534 1535 1536 1537 1538 1540 1540 1541 1542 1542 1543 1544 1544 1545 1545 1546 1546 1546 1546 1546 1546 1546 1545 1545 1545 1544
1500 1503 1505 1507 1509 1511 1513 1515 1517 1519 1521 1522 1524 1525 1527 1529 1530 1531 1532 1533 1534 1535 1536 1537 1538 1539 1539 1540 1540 1541 1541 1542 1542 1542 1542 1541 1541 1542 1542 1541 1541 1541 1541
1497 1499 1501 1504 1506 1508 1510 1512 1513 1515 1517 1519 1520 1522 1524 1525 1527 1528 1530 1530 1530 1531 1532 1532 1534 1535 1536 1536 1537 1537 1537 1538 1538 1538 1538 1538 1537 1538 1538 1538 1537 1537 1537
1493 1496 1498 1500 1502 1504 1506 1508 1510 1512 1513 1515 1517 1518 1520 1522 1523 1525 1526 1527 1529 1528 1528 1529 1530 1531 1532 1532 1533 1533 1533 1534 1534 1534 1534 1534 1534 1534 1533 1533 1533 1533 1532
1490 1492 1494 1496 1498 1501 1502 1504 1506 1508 1510 1511 1513 1515 1516 1518 1519 1521 1523 1524 1525 1525 1524 1525 1526 1527 1527 1528 1529 1529 1529 1530 1530 1530 1529 1529 1529 1529 1529 1529 1528 1528 1528
1485 1488 1490 1492 1494 1496 1498 1500 1502 1504 1506 1508 1509 1511 1512 1514 1515 1517 1518 1519 1521 1521 1521 1521 1522 1523 1523 1524 1524 1525 1525 1525 1525 1525 1525 1525 1525 1525 1524 1524 1524 1523 1523
1481 1484 1486 1488 1490 1492 1494 1496 1498 1500 1502 1503 1505 1507 1508 1510 1511 1513 1514 1515 1516 1517 1518 1517 1517 1519 1519 1520 1520 1520 1520 1520 1521 1521 1521 1520 1520 1519 1519 1519 1519 1518 1517
1477 1480 1482 1484 1486 1488 1490 1492 1494 1496 1498 1499 1501 1502 1504 1505 1506 1508 1509 1510 1512 1513 1513 1513 1513 1514 1515 1516 1515 1515 1516 1515 1516 1516 1515 1515 1515 1514 1514 1514 1513 1513 1512
1473 1475 1477 1480 1482 1484 1486 1488 1490 1492 1493 1495 1496 1498 1499 1500 1502 1503 1504 1506 1507 1508 1509 1509 1509 1509 1510 1510 1510 1510 1510 1510 1510 1510 1510 1510 1509 1509 1509 1508 1507 1507 1506
1469 1471 1473 1475 1477 1479 1481 1483 1485 1487 1488 1490 1491 1493 1494 1496 1497 1498 1500 1501 1502 1503 1503 1504 1504 1504 1505 1505 1505 1506 1506 1505 1505 1505 1504 1504 1504 1503 1502 1502 1502 1501 1500
1465 1467 1469 1471 1473 1475 1477 1479 1480 1482 1483 1485 1486 1488 1489 1490 1492 1493 1494 1496 1497 1498 1498 1499 1499 1499 1499 1500 1501 1501 1501 1500 1499 1499 1498 1498 1498 1497 1497 1496 1496 1495 1495
1461 1463 1465 1467 1468 1470 1472 1474 1475 1477 1478 1479 1481 1482 1484 1485 1487 1488 1489 1490 1491 1492 1493 1494 1494 1494 1494 1495 1496 1495 1495 1495 1494 1494 1493 1491 1492 1491 1491 1490 1490 1489 1489
1457 1459 1460 1462 1463 1465 1467 1469 1471 1472 1473 1475 1476 1477 1479 1480 1482 1483 1484 1485 1486 1486 1487 1488 1489 1489 1490 1490 1490 1491 1490 1489 1489 1489 1489 1487 1485 1485 1485 1484 1484 1483 1483
1453 1455 1456 1457 1459 1460 1462 1464 1466 1467 1468 1469 1471 1472 1474 1475 1476 1478 1479 1479 1480 1480 1481 1482 1483 1484 1484 1484 1485 1485 1484 1483 1482 1482 1483 1482 1480 1479 1477 1477 1477 1477 1476
1450 1451 1452 1453 1454 1456 1457 1459 1461 1462 1463 1464 1465 1467 1469 1470 1471 1472 1473 1474 1474 1475 1476 1476 1477 1478 1478 1479 1479 1479 1479 1478 1477 1476 1476 1477 1475 1474 1471 1469 1470 1469 1469